Theta_e
294 298 298 296 293 297 295 297 293 293 291 291 293 293 294 296 296 297 296 295 295 294 295 295 295 296 297 297 297 298 297 296 296 297 295 294 293 293 293 293 293 293 294 293
292 297 295 291 292 293 292 293 295 295 293 296 295 295 295 295 296 295 295 295 295 295 295 295 295 296 297 297 297 297 296 296 297 297 297 294 293 293 292 292 292 292 292 291
285 293 293 284 289 290 290 291 293 292 293 294 292 294 295 295 295 295 295 295 296 297 296 296 295 296 295 295 296 296 296 297 297 297 296 295 295 293 292 292 290 290 291 290
284 287 280 288 295 295 289 290 291 292 293 293 291 292 293 295 295 295 295 296 296 296 296 296 295 296 297 297 297 296 296 297 297 297 296 295 294 293 291 291 291 290 290 289
281 281 289 291 293 292 290 287 290 288 289 290 292 293 292 296 296 294 294 294 295 296 296 296 296 297 297 297 296 297 296 296 297 297 295 294 293 292 292 291 290 290 290 288
286 282 280 287 294 299 296 281 295 293 292 293 294 286 289 294 295 294 294 293 294 295 295 295 295 296 296 295 295 295 296 297 298 297 295 292 293 291 291 291 292 292 291 289
282 284 284 291 296 299 286 285 295 295 295 295 292 292 292 294 294 293 293 294 294 295 294 294 296 296 295 295 294 297 299 299 298 297 295 293 292 291 291 292 292 291 290 289
281 279 276 296 296 290 290 293 296 297 295 293 292 292 293 294 293 293 292 293 295 293 294 295 296 295 295 294 297 298 298 298 297 296 295 297 293 291 292 291 290 289 288 288
281 280 290 294 293 296 296 295 295 296 297 296 295 294 294 292 292 293 293 294 295 294 295 295 296 295 294 294 297 297 296 295 295 297 296 294 292 291 291 289 288 289 288 284
286 289 291 295 299 299 298 297 299 299 297 298 294 294 293 292 292 293 295 295 295 294 293 294 298 297 296 296 297 296 295 294 294 294 294 293 293 292 290 289 288 288 286 284
287 291 294 295 295 297 297 297 297 298 298 298 295 295 294 293 293 294 294 294 295 294 294 295 297 298 300 298 297 296 295 295 294 294 293 292 293 292 292 292 290 289 286 285
284 292 291 290 293 297 295 297 299 298 297 297 296 295 294 294 294 294 295 295 294 295 296 298 299 300 299 298 300 296 294 295 294 293 293 292 292 292 294 293 294 292 291 287
291 294 293 295 297 300 296 297 299 297 298 295 297 296 295 294 295 298 298 297 297 296 298 299 299 297 298 300 300 299 295 298 297 297 297 295 293 292 289 293 293 292 291 290
296 296 294 299 297 300 301 302 302 301 301 300 299 299 299 297 297 298 298 298 298 299 299 297 297 297 300 300 302 300 301 298 299 299 299 298 297 295 293 288 287 288 290 289
299 298 297 299 301 301 302 302 299 299 301 303 303 303 303 299 298 299 299 300 299 298 299 300 300 300 301 302 301 300 300 300 302 301 300 299 296 295 295 289 287 286 286 287
301 301 301 300 298 299 300 299 300 298 299 300 299 301 302 300 300 300 300 301 298 297 299 300 300 303 304 302 301 298 297 300 298 299 298 298 297 295 289 287 286 285 284 283
297 296 298 297 297 297 298 300 301 301 299 300 300 301 301 300 300 299 298 298 298 297 298 299 300 304 303 301 299 298 297 296 290 294 296 297 293 288 286 285 285 284 283 284
298 299 299 298 299 299 300 302 301 302 301 303 304 302 300 299 297 297 298 297 297 297 297 299 301 300 300 299 297 296 295 293 296 296 296 292 287 286 285 285 285 284 282 283
300 300 301 302 300 302 302 302 303 303 302 303 302 300 299 300 298 297 296 297 297 295 297 298 299 298 297 297 296 294 293 293 294 292 290 286 286 285 284 284 284 283 282 283
301 302 301 301 305 304 302 303 301 301 302 301 301 300 299 300 300 299 297 296 296 296 296 298 298 297 296 296 295 294 293 292 291 288 287 286 285 285 284 285 285 285 283 283
301 303 298 301 301 304 303 302 301 300 300 301 299 299 299 299 299 298 295 293 296 295 295 295 294 295 294 292 293 294 293 291 288 287 287 286 285 285 284 284 284 284 283 283
299 299 300 301 302 301 300 300 300 302 299 298 298 300 299 297 297 296 296 294 296 289 295 293 291 286 290 286 294 295 293 290 288 287 286 286 285 284 283 283 283 284 283 282
299 299 301 300 299 300 301 300 300 300 299 300 300 299 296 295 295 293 292 296 297 292 294 292 287 283 282 292 294 293 293 292 290 288 288 286 285 285 284 283 283 283 282 282
300 303 300 300 299 298 297 296 300 301 300 301 301 300 298 296 296 295 295 292 290 290 295 292 288 285 283 293 294 293 293 292 289 288 287 286 286 285 284 285 284 283 282 283
300 300 300 300 298 298 298 300 298 299 299 299 300 300 300 298 296 295 295 294 288 292 295 288 287 286 289 292 294 293 291 290 290 288 287 286 288 287 286 286 284 281 279 282
298 297 298 299 298 297 297 296 295 299 299 297 297 297 297 298 298 296 296 293 295 291 295 296 293 292 292 294 294 293 291 290 289 287 287 290 288 285 288 285 283 282 281 279
300 297 298 296 296 297 297 295 295 295 296 296 295 296 297 298 297 295 292 295 295 295 294 294 295 293 294 294 293 292 291 289 287 288 288 287 286 286 288 287 284 281 281 278
Wind_Speed
3 3 3 7 10 5 9 5 8 11 15 18 21 22 19 18 16 14 15 12 10 6 6 5 6 4 4 3 3 2 4 4 4 5 5 5 3 1 3 5 5 5 5 5
8 5 3 5 19 11 8 4 5 19 6 10 11 14 14 13 14 13 11 12 10 8 7 6 6 4 4 2 4 4 5 4 4 5 5 5 3 2 1 3 5 5 5 5
5 3 6 7 14 14 4 11 2 9 7 15 17 16 15 15 14 13 12 10 10 9 8 6 6 4 3 3 4 5 5 4 4 3 3 5 5 3 2 3 3 5 5 5
4 3 3 4 8 9 10 18 15 13 14 14 13 9 11 12 13 11 10 10 8 6 6 6 4 4 3 5 6 4 3 2 1 1 1 2 5 5 4 3 5 4 6 6
4 1 6 6 10 8 8 14 14 14 13 16 19 22 12 9 9 8 8 6 6 6 5 6 5 4 6 5 4 2 1 3 4 4 3 3 5 6 6 4 5 5 5 7
2 3 1 6 3 6 5 6 10 13 9 10 9 8 1 2 5 7 7 6 7 7 5 6 3 4 6 4 2 3 5 6 5 5 5 5 6 6 5 4 6 5 6 6
2 2 3 1 7 5 3 7 2 10 7 6 4 6 6 5 4 5 6 6 6 7 7 6 4 4 5 4 3 4 4 5 6 5 6 7 6 3 5 6 6 6 6 7
3 3 2 2 3 3 3 2 1 4 5 7 6 7 8 7 6 6 5 5 6 6 6 6 5 4 5 6 6 5 4 3 4 7 5 5 5 6 7 5 5 7 5 7
4 5 5 5 3 4 3 2 3 4 4 7 7 4 6 6 6 5 5 4 4 6 7 7 7 7 8 8 8 8 4 5 4 6 4 5 5 6 5 4 4 6 4 4
4 4 2 5 4 4 5 4 4 6 5 6 6 7 7 6 6 5 6 7 6 6 7 8 8 7 10 8 7 5 6 6 5 4 6 5 4 3 4 5 5 5 4 5
2 2 5 4 5 5 5 5 4 4 7 7 7 7 8 7 7 7 7 6 6 7 7 10 7 10 11 8 7 7 7 7 6 5 5 5 5 4 4 6 6 5 5 5
5 6 3 3 3 4 4 3 4 5 4 6 7 8 8 8 7 7 8 7 7 8 8 10 7 10 10 7 10 9 7 6 6 5 5 4 4 5 7 8 11 6 13 5
3 4 6 7 7 5 4 5 5 7 5 6 4 8 7 6 8 10 9 7 6 10 10 10 8 8 8 9 9 10 9 10 8 8 5 3 5 3 4 8 10 10 11 1
7 7 3 3 3 2 6 6 6 4 4 1 2 1 3 5 3 6 7 8 8 7 7 6 7 8 7 6 6 8 10 9 5 2 1 2 5 4 2 2 4 5 5 3
5 3 7 7 7 5 2 2 3 3 3 1 3 4 3 4 3 5 4 3 3 4 3 4 5 7 6 6 6 6 4 3 3 3 3 1 3 2 3 4 3 3 3 4
7 8 5 5 6 5 3 1 2 3 3 3 2 4 5 4 3 4 3 1 1 3 6 3 3 4 6 6 5 3 3 4 4 3 2 2 2 2 4 3 4 3 3 2
6 4 4 2 5 4 6 6 2 3 3 4 6 7 5 2 3 3 2 2 3 6 6 4 6 6 5 4 5 3 2 2 4 2 2 2 2 3 1 3 3 4 3 2
4 3 5 5 5 5 5 5 5 4 3 5 5 3 5 2 2 2 2 2 3 4 5 7 6 2 3 4 3 4 4 4 3 3 1 4 3 2 3 3 3 3 3 4
5 6 7 8 7 7 6 5 6 5 5 4 4 3 2 1 1 2 1 3 3 3 3 5 4 4 3 4 5 4 4 3 2 2 3 4 3 3 3 3 4 4 3 3
6 6 7 7 8 9 7 5 9 6 5 5 5 2 1 3 3 3 2 2 3 4 5 3 4 3 2 2 4 3 2 3 4 5 4 4 3 2 3 4 4 4 3 3
7 7 5 5 4 5 2 5 6 5 4 2 5 2 4 4 3 4 3 1 5 3 1 4 3 2 1 0 2 4 4 4 5 4 4 3 2 1 2 3 4 4 4 3
5 3 1 7 6 6 7 7 6 5 5 4 4 3 3 5 5 3 4 5 3 2 3 2 2 1 1 3 2 3 3 4 5 4 3 3 3 3 3 3 4 4 4 5
7 6 6 7 8 8 7 6 6 6 6 5 4 4 4 3 4 4 4 5 5 3 3 3 4 5 5 3 3 3 2 4 5 5 5 4 5 5 4 4 4 4 4 5
3 4 4 3 1 2 1 2 7 7 7 6 6 5 4 2 3 4 4 6 7 6 6 5 6 7 4 3 3 3 4 5 5 5 4 5 4 4 4 4 3 4 4 4
8 7 7 6 3 2 5 3 6 7 6 6 6 6 6 4 4 3 4 5 7 6 5 7 9 8 5 5 5 5 4 4 5 4 3 4 4 4 4 3 3 3 3 2
4 3 3 4 4 4 4 1 2 4 5 4 4 5 5 4 5 4 5 6 6 6 6 5 6 5 5 5 5 5 5 5 4 3 3 3 3 2 3 3 2 2 2 3
2 3 1 3 3 4 4 5 5 5 5 5 6 5 7 6 5 5 6 6 6 6 5 5 6 6 5 5 5 5 4 3 3 3 0 1 1 3 2 1 2 3 3 3
Wind_Direction
261 298 337 28 5 245 196 197 169 183 177 183 172 158 149 138 135 128 124 122 121 127 127 111 106 104 96 115 97 88 83 84 71 136 124 125 112 49 6 15 344 338 342 328
306 314 347 71 12 359 16 13 257 168 177 159 131 125 131 134 132 127 125 123 132 133 141 137 131 122 88 110 69 86 75 72 61 86 154 160 189 217 332 347 335 339 340 327
279 267 304 22 355 8 329 5 264 169 189 142 141 140 147 141 129 135 138 136 135 143 142 148 143 114 87 124 93 82 76 63 70 74 90 185 216 237 299 292 299 309 308 320
224 336 212 162 8 356 39 21 19 80 110 118 106 78 91 120 127 132 128 134 141 138 129 140 137 92 103 93 86 87 70 44 72 154 275 189 234 264 266 254 267 282 279 286
86 338 119 4 9 356 349 38 52 65 72 95 99 81 43 50 89 110 119 129 137 140 136 128 118 92 102 93 92 72 305 269 247 231 254 277 267 261 262 250 262 260 252 286
7 81 153 227 254 345 338 5 4 76 44 26 36 71 215 224 97 103 119 132 131 128 126 115 126 94 121 139 151 262 265 258 251 246 246 270 269 267 253 236 253 270 274 268
61 140 296 252 265 304 163 201 207 117 137 125 174 207 166 159 109 122 128 130 114 127 144 165 177 131 162 183 225 251 281 285 267 256 255 256 274 251 272 278 272 268 265 276
42 61 333 282 290 218 184 122 320 78 115 102 114 109 126 132 138 141 152 137 140 152 174 204 208 158 191 210 225 235 256 300 291 275 273 283 284 281 281 275 264 269 262 281
128 210 241 284 73 54 120 140 156 141 145 136 128 142 156 156 165 179 183 197 164 192 201 215 221 195 200 226 215 216 225 268 285 302 280 296 292 284 279 275 262 268 256 273
72 315 309 40 82 160 193 227 199 170 168 151 159 159 183 184 183 202 208 215 217 205 215 236 226 218 225 230 225 198 231 251 265 282 287 298 310 298 266 276 285 267 262 267
41 326 52 43 108 135 113 98 97 118 144 177 164 188 179 185 194 206 208 214 204 216 230 246 234 224 229 228 206 214 222 233 239 237 258 280 281 258 275 270 220 255 240 236
215 218 143 209 172 144 134 164 164 146 179 185 184 191 181 205 203 196 217 230 233 236 236 249 244 226 228 219 217 217 224 230 226 231 243 249 267 300 291 279 317 306 259 212
148 160 143 183 200 208 209 218 172 165 170 210 218 187 194 201 197 212 226 231 235 242 243 249 232 228 239 238 227 232 226 235 229 226 211 227 272 264 295 322 328 325 332 2
153 132 159 187 244 142 56 55 59 64 39 51 212 229 179 189 148 203 201 217 227 225 227 244 260 252 257 275 261 244 246 258 262 272 345 291 267 251 280 339 302 314 329 360
165 157 117 147 81 84 131 82 58 342 308 96 17 344 343 245 248 271 305 332 354 347 319 305 291 283 291 292 279 266 257 246 187 205 197 237 273 287 41 298 320 323 329 347
120 110 104 122 174 199 221 191 184 286 254 256 263 294 280 297 278 274 189 72 123 267 294 340 308 302 291 307 308 247 245 208 140 144 152 95 229 324 357 349 4 348 353 304
141 152 140 203 209 208 209 247 246 257 277 294 286 278 270 164 122 116 240 282 286 282 273 275 281 284 317 323 306 269 176 150 116 157 159 221 26 22 34 29 5 352 314 305
165 197 173 190 209 248 274 258 260 259 282 297 269 141 83 106 202 276 282 286 292 295 271 262 272 283 7 8 43 84 114 136 149 173 207 38 62 86 41 23 0 359 320 322
206 236 201 209 211 216 230 248 249 152 201 159 130 89 109 137 180 254 302 321 331 340 287 321 9 90 86 111 104 101 108 125 126 70 90 107 74 41 26 18 355 334 336 354
257 253 239 229 206 206 223 200 134 158 193 141 146 45 282 224 225 219 216 264 245 239 310 335 66 99 103 104 110 124 141 130 117 128 123 113 106 39 3 352 341 338 326 322
259 235 237 211 239 135 98 132 145 150 221 160 125 123 195 202 172 143 126 233 269 331 118 77 80 82 36 201 163 166 151 128 151 154 147 155 134 44 330 314 319 323 300 298
238 205 194 125 117 123 148 170 168 176 184 227 217 221 217 209 215 199 215 188 249 257 166 147 153 144 223 312 241 199 176 168 171 167 169 177 186 208 245 277 302 304 303 294
224 212 139 160 156 182 186 177 192 178 201 219 212 188 215 196 199 181 245 240 202 212 187 193 200 229 237 238 214 207 242 182 188 201 202 203 209 215 220 242 276 294 301 300
105 116 162 135 192 92 308 194 195 207 205 219 229 232 205 220 283 234 222 191 193 181 195 209 211 224 228 261 248 235 243 200 189 204 215 221 229 225 227 238 274 292 296 308
157 156 169 170 140 247 287 296 178 212 213 224 241 244 235 216 180 230 189 212 205 198 214 222 214 210 221 225 222 221 224 209 210 200 207 213 232 222 224 232 264 272 295 305
221 203 188 190 209 198 244 196 189 184 173 215 247 243 254 228 223 222 219 203 209 207 219 222 227 217 213 230 228 210 189 198 202 204 212 235 250 228 236 254 289 318 305 287
170 213 252 320 281 234 226 201 159 192 194 192 223 227 217 235 238 222 215 218 208 220 227 244 212 221 214 220 195 195 162 139 149 153 154 319 240 248 262 43 8 320 304 289